College Station, TX

12:39 PM CDT on October 18, 2017 (GMT -0500)
Easterwood

Weather History for KCLL - September, 2013

Change the Weather History Date:

Monday, September 30, 2013

  Actual Average Record
Temperature  
Mean Temperature 78 °F 76 °F  
Max Temperature 86 °F 86 °F 98 °F (1938)
Min Temperature 70 °F 65 °F 44 °F (1916)
Degree Days  
Heating Degree Days 0 0  
Month to date heating degree days 0 0  
Since 1 July heating degree days 0 2  
Cooling Degree Days 13 11  
Month to date cooling degree days 556 450  
Year to date cooling degree days 3033 2796  
Growing Degree Days 28 (Base 50)    
Moisture  
Dew Point 68 °F    
Average Humidity 74    
Maximum Humidity 97    
Minimum Humidity 51    
Precipitation  
Precipitation 0.00 in 0.11 in 1.85 in (1927)
Month to date precipitation 5.19 3.18  
Year to date precipitation 24.92 28.70  
Sea Level Pressure  
Sea Level Pressure 29.87 in    
Wind  
Wind Speed 2 mph (SSW)    
Max Wind Speed 10 mph    
Max Gust Speed 13 mph    
Visibility 10 miles    
Events      
T = Trace of Precipitation, MM = Missing Value Source: NWS Daily Summary

Daily Weather History Graph

Daily Weather History Graph

Search for Another Location

Airport or City:

Trip Planner

Search our weather history database for the weather conditions in past years. The results will help you decide how hot, cold, wet, or windy it might be!

Date:

Astronomy

Sep. 30, 2013 Rise Set
Actual Time 7:18 AM CDT 7:11 PM CDT
Civil Twilight 6:54 AM CDT 7:35 PM CDT
Nautical Twilight 6:26 AM CDT 8:03 PM CDT
Astronomical Twilight 5:58 AM CDT 8:31 PM CDT
Moon 3:12 AM CDT (9/30) 4:29 PM CDT (9/30)
Length of Visible Light 12h 41m
Length of Day
11h 53m
Waning Crescent, 19% of the Moon is Illuminated
Sep 30
Waning Crescent
Oct 4
New
Oct 11
First Quarter
Oct 18
Full
Oct 26
Last Quarter

Hourly Weather History & Observations

Time (CDT) Temp. Heat Index Dew Point Humidity Pressure Visibility Wind Dir Wind Speed Gust Speed Precip Events Conditions
12:53 AM 72.0 °F - 69.1 °F 91% 29.92 in 10.0 mi Calm Calm - N/A   Overcast
1:53 AM 71.1 °F - 68.0 °F 90% 29.91 in 10.0 mi Calm Calm - N/A   Overcast
2:11 AM 71.6 °F - 68.0 °F 88% 29.92 in 10.0 mi Calm Calm - N/A   Overcast
2:53 AM 72.0 °F - 68.0 °F 87% 29.90 in 10.0 mi North 3.5 mph - N/A   Overcast
3:53 AM 72.0 °F - 68.0 °F 87% 29.88 in 10.0 mi Calm Calm - N/A   Overcast
4:53 AM 71.1 °F - 68.0 °F 90% 29.87 in 10.0 mi Calm Calm - N/A   Overcast
5:53 AM 71.1 °F - 68.0 °F 90% 29.88 in 10.0 mi Calm Calm - N/A   Overcast
6:53 AM 70.0 °F - 68.0 °F 93% 29.88 in 10.0 mi Calm Calm - N/A   Partly Cloudy
7:53 AM 70.0 °F - 68.0 °F 93% 29.89 in 10.0 mi Calm Calm - N/A   Clear
8:53 AM 73.0 °F - 66.9 °F 81% 29.89 in 10.0 mi Calm Calm - N/A   Clear
9:53 AM 75.0 °F - 68.0 °F 79% 29.90 in 10.0 mi Calm Calm - N/A   Mostly Cloudy
10:53 AM 77.0 °F - 69.1 °F 76% 29.90 in 10.0 mi Calm Calm - N/A   Mostly Cloudy
11:53 AM 78.1 °F - 69.1 °F 74% 29.89 in 10.0 mi Variable 3.5 mph - N/A   Mostly Cloudy
12:40 PM 80.6 °F 83.9 °F 69.8 °F 70% 29.89 in 10.0 mi Calm Calm - N/A   Mostly Cloudy
12:53 PM 80.1 °F 82.9 °F 69.1 °F 69% 29.88 in 10.0 mi WSW 4.6 mph - N/A   Mostly Cloudy
1:09 PM 82.4 °F 86.3 °F 69.8 °F 66% 29.88 in 10.0 mi South 4.6 mph - N/A   Scattered Clouds
1:53 PM 82.9 °F 86.5 °F 69.1 °F 63% 29.86 in 10.0 mi Calm Calm - N/A   Scattered Clouds
2:53 PM 84.0 °F 85.8 °F 64.9 °F 53% 29.83 in 10.0 mi Variable 3.5 mph - N/A   Partly Cloudy
3:53 PM 84.9 °F 87.1 °F 66.0 °F 53% 29.81 in 10.0 mi Calm Calm - N/A   Scattered Clouds
4:53 PM 86.0 °F 88.2 °F 66.0 °F 51% 29.81 in 10.0 mi South 6.9 mph - N/A   Partly Cloudy
5:53 PM 84.9 °F 87.1 °F 66.0 °F 53% 29.81 in 10.0 mi SSW 4.6 mph - N/A   Clear
6:53 PM 82.9 °F 85.0 °F 66.0 °F 56% 29.82 in 10.0 mi South 3.5 mph - N/A   Clear
7:53 PM 81.0 °F 83.0 °F 66.0 °F 60% 29.83 in 10.0 mi Calm Calm - N/A   Clear
8:53 PM 78.1 °F - 66.9 °F 68% 29.84 in 10.0 mi WSW 3.5 mph - N/A   Clear
9:53 PM 75.9 °F - 66.0 °F 71% 29.86 in 10.0 mi ESE 9.2 mph - N/A   Clear
10:53 PM 75.0 °F - 66.9 °F 76% 29.86 in 10.0 mi Calm Calm - N/A   Clear
11:53 PM 73.9 °F - 71.1 °F 91% 29.86 in 10.0 mi SE 4.6 mph - N/A   Clear